Location: Ripley
(48.3812°N, 115.4473°W)
Time: 19:18:27
(UTC+00:00)

RS-15 - Pass Details

Date: 07 July 2022
Orbit: 1881 x 2163 km, 64.8° (Epoch: 19 August)

Event Time Altitude Azimuth Distance (km) Brightness Sun altitude
Rises 04:37:46 0° 314° (NW) 5,689 13.1 -7.4°
Reaches altitude 10° 04:41:24 10° 318° (NW) 4,691 11.8 -7.8°
Maximum altitude 04:53:38 59° 37° (NE) 2,418 8.6 -9.2°
Drops below altitude 10° 05:05:31 10° 116° (ESE) 4,577 9.4 -10.4°
Enters shadow 05:06:30 - 118° (ESE) 4,847 9.5 -10.5°
